Location: Alta Heights Magnet Elementary School
(38.3024°N, 122.2723°W)
Time: 06:44:41
(UTC+00:00)

Daily predictions for brighter satellites

Satellite Brightness Start Highest point End
(mag) Time Altitude Azimuth Time Altitude Azimuth Time Altitude Azimuth
ADEOS II 4.0 12:02:17 10° NNW 12:05:00 14° WNW 12:07:01 12° W
SL-16 R/B 3.8 12:04:40 10° WNW 12:07:18 14° W 12:07:18 14° W
SL-08 R/B 4.4 12:03:06 10° N 12:09:18 80° W 12:15:33 10° S
H-2A R/B 2.0 12:05:48 10° S 12:09:50 54° W 12:13:51 10° NNW
Cosmos 1125 Rocket 3.5 12:05:02 12° SSW 12:09:55 89° W 12:15:13 10° NNE
FALCON 9 DEB 3.0 12:07:39 10° NW 12:11:06 74° SW 12:14:32 10° SE
Cosmos 724 4.5 12:09:18 10° NW 12:15:09 52° WSW 12:21:04 10° S
USA 267 3.3 12:09:12 10° SE 12:15:44 87° SW 12:22:20 10° NW
Cosmos 1825 Rocket 3.4 12:15:18 10° N 12:19:38 74° W 12:23:55 10° S
Cosmos 2263 Rocket 3.3 12:18:12 15° WSW 12:21:56 28° WNW 12:26:43 10° N
Aureole 3 4.2 12:17:20 10° SSW 12:22:14 70° W 12:28:31 10° N
Atlas Centaur 2 3.9 12:19:08 12° SW 12:25:18 36° SSE 12:32:46 10° E
Cosmos 1953 Rocket 3.7 12:22:08 10° N 12:26:38 85° E 12:31:06 10° S
Delta 2 Rocket 3.6 12:25:29 15° WSW 12:28:21 48° SSE 12:32:20 10° E
CZ-4B R/B 1.3 12:34:01 10° SSE 12:37:20 88° ENE 12:40:35 10° NNW
Cosmos 2315 Rocket 4.4 12:32:04 10° S 12:38:18 73° E 12:44:39 10° N
SeaSat 1 3.2 12:33:54 10° N 12:38:27 38° WNW 12:42:59 10° SW
ERS-2 3.1 12:36:39 10° SSW 12:39:43 26° W 12:42:49 10° NW
Cosmos 1606 Rocket 4.4 12:39:10 10° SW 12:43:14 34° WNW 12:47:20 10° NNW
Cosmos 1844 Rocket 2.7 12:42:04 10° SSW 12:47:39 83° WNW 12:53:15 10° NNE
Cosmos 2084 4.3 12:46:41 10° WSW 12:50:47 38° NW 12:54:56 10° NNE
